IU2EVW-13 Weather Reports


time (UTC)temp
F
wind
direction
speed
knots
gust
knots
rain 1hr
in
rain 24hr
in
rain mn
in
humidity
%
barometer
mb
20260506234221 44 0.0 0.0 0.00 0.00 0.00 85 1016.4
20260506232220 44 0.0 0.0 0.00 0.00 0.00 85 1016.0
20260506230219 45 0.0 0.0 0.00 0.00 0.00 87 1015.6
20260506224217 44 0.0 0.0 0.00 0.00 0.00 86 1015.4
20260506222216 45 0.0 0.0 0.00 0.00 0.00 84 1015.2
20260506220214 44 0.0 0.0 0.00 0.00 0.00 85 1014.9
20260506214213 45 0.0 0.0 0.00 0.00 0.00 84 1014.9
20260506212212 45 0.0 0.0 0.00 0.00 0.00 83 1014.9
20260506210211 45 0.0 0.0 0.00 0.00 0.00 83 1014.9
20260506204209 44 0.0 0.0 0.00 0.00 0.00 88 1015.0
20260506202208 45 0.0 0.0 0.00 0.00 0.00 84 1014.5
20260506200206 45 0.0 0.0 0.00 0.00 0.00 87 1016.1
20260506194205 45 0.0 0.0 0.00 0.00 0.00 86 1014.9
20260506192204 45 0.0 0.0 0.00 0.00 0.00 85 1013.8
20260506190202 45 0.0 0.0 0.00 0.00 0.00 82 1013.6
20260506184201 46 0.0 0.0 0.00 0.00 0.00 81 1013.5
20260506182200 45 0.0 0.0 0.00 0.00 0.00 84 1013.8
20260506180158 46 0.0 0.0 0.00 0.00 0.00 80 1013.2
20260506174157 46 0.0 0.0 0.00 0.00 0.00 79 1012.8
20260506172155 46 0.0 0.0 0.00 0.00 0.00 79 1012.8
20260506170154 47 0.0 0.0 0.00 0.00 0.00 83 1012.8
20260506164153 46 0.0 0.0 0.00 0.00 0.00 84 1012.8
20260506162151 47 0.0 0.0 0.00 0.00 0.00 86 1012.9
20260506160150 48 0.0 0.0 0.00 0.00 0.00 87 1013.1
20260506154148 47 0.0 0.0 0.00 0.00 0.00 88 1013.2
20260506152147 48 0.0 0.0 0.00 0.00 0.00 86 1012.8
20260506150146 49 0.0 0.0 0.00 0.00 0.00 85 1012.5
20260506144144 49 0.0 0.0 0.00 0.00 0.00 84 1012.0
20260506142143 50 0.0 0.0 0.00 0.00 0.00 86 1011.7
20260506140141 51 0.0 0.0 0.00 0.00 0.00 83 1011.2
20260506134140 52 0.0 0.0 0.00 0.00 0.00 78 1011.0
20260506132138 53 0.0 0.0 0.00 0.00 0.00 78 1011.3
20260506130137 54 0.0 0.0 0.00 0.00 0.00 84 1011.3
20260506124136 51 0.0 0.0 0.00 0.00 0.00 83 1010.9
20260506122134 53 0.0 0.0 0.00 0.00 0.00 80 1010.9
20260506120133 56 0.0 0.0 0.00 0.00 0.00 76 1010.6
20260506114132 54 0.0 0.0 0.00 0.00 0.00 81 1011.1
20260506112130 54 0.0 0.0 0.00 0.00 0.00 80 1011.0
20260506110129 53 0.0 0.0 0.00 0.00 0.00 84 1011.0
20260506104127 51 0.0 0.0 0.00 0.00 0.00 86 1011.5
20260506102126 49 0.0 0.0 0.00 0.00 0.00 88 1012.0
20260506100125 51 0.0 0.0 0.00 0.00 0.00 86 1011.5
20260506094123 50 0.0 0.0 0.00 0.00 0.00 85 1011.2
20260506092122 50 0.0 0.0 0.00 0.00 0.00 84 1010.9
20260506090120 51 0.0 0.0 0.00 0.00 0.00 78 1010.5
20260506084119 51 0.0 0.0 0.00 0.00 0.00 84 1010.9
20260506082118 50 0.0 0.0 0.00 0.00 0.00 84 1011.3
20260506080116 51 0.0 0.0 0.00 0.00 0.00 82 1011.3
20260506072114 51 0.0 0.0 0.00 0.00 0.00 77 1011.2
20260506070112 50 0.0 0.0 0.00 0.00 0.00 82 1011.4
20260506062110 50 0.0 0.0 0.00 0.00 0.00 81 1011.5
20260506060108 49 0.0 0.0 0.00 0.00 0.00 85 1011.6
20260506050104 48 0.0 0.0 0.00 0.00 0.00 87 1011.8
20260506044103 49 0.0 0.0 0.00 0.00 0.00 87 1011.8
20260506042102 49 0.0 0.0 0.00 0.00 0.00 86 1011.7
20260506040100 49 0.0 0.0 0.00 0.00 0.00 86 1011.8
20260506034059 49 0.0 0.0 0.00 0.00 0.00 86 1012.0
20260506032057 48 0.0 0.0 0.00 0.00 0.00 87 1012.1
20260506030056 48 0.0 0.0 0.00 0.00 0.00 87 1012.3
20260506024054 49 0.0 0.0 0.00 0.00 0.00 85 1012.7
20260506022053 49 0.0 0.0 0.00 0.00 0.00 86 1013.1
20260506020052 49 0.0 0.0 0.00 0.00 0.00 84 1013.0
20260506014050 49 0.0 0.0 0.00 0.00 0.00 85 1013.2
20260506012049 49 0.0 0.0 0.00 0.00 0.00 85 1013.0
20260506010048 49 0.0 0.0 0.00 0.00 0.00 84 1013.5
20260506004046 49 0.0 0.0 0.00 0.00 0.00 84 1013.7
20260506002045 49 0.0 0.0 0.00 0.00 0.00 85 1013.8
20260506000044 49 0.0 0.0 0.00 0.00 0.00 86 1014.0